QPF
0.00 0.00 0.00 0.00 0.00 0.00 0.00 0.00 0.00 0.00 0.00 0.00 0.00 0.00 0.00 0.00 0.00 0.00 0.00 0.00 0.00 0.00 0.00 0.00 0.00 0.00 0.00 0.00 0.00 0.00 0.00 0.00 0.00 0.00 0.00 0.00 0.00 0.00 0.00 0.00 0.00 0.00 0.00 0.00 0.00
0.00 0.00 0.00 0.00 0.00 0.00 0.00 0.00 0.00 0.00 0.00 0.00 0.00 0.00 0.00 0.00 0.00 0.00 0.00 0.00 0.00 0.00 0.00 0.00 0.00 0.00 0.00 0.00 0.00 0.00 0.00 0.00 0.00 0.00 0.00 0.00 0.00 0.00 0.00 0.00 0.00 0.00 0.00 0.00 0.00
0.00 0.00 0.00 0.00 0.00 0.00 0.00 0.00 0.00 0.00 0.00 0.00 0.00 0.00 0.00 0.00 0.00 0.00 0.00 0.00 0.00 0.00 0.00 0.00 0.00 0.00 0.00 0.00 0.00 0.00 0.00 0.00 0.00 0.00 0.00 0.00 0.00 0.00 0.00 0.00 0.00 0.00 0.00 0.00 0.00
0.00 0.00 0.00 0.00 0.00 0.00 0.00 0.00 0.00 0.00 0.00 0.00 0.00 0.00 0.00 0.00 0.00 0.00 0.00 0.00 0.00 0.00 0.00 0.00 0.00 0.00 0.00 0.00 0.00 0.00 0.00 0.00 0.00 0.00 0.00 0.00 0.00 0.00 0.00 0.00 0.00 0.00 0.00 0.00 0.00
0.00 0.00 0.00 0.00 0.00 0.00 0.00 0.00 0.00 0.00 0.00 0.00 0.00 0.00 0.00 0.00 0.00 0.00 0.00 0.00 0.00 0.00 0.00 0.00 0.00 0.00 0.00 0.00 0.00 0.00 0.00 0.00 0.00 0.00 0.00 0.00 0.00 0.00 0.00 0.00 0.00 0.00 0.00 0.00 0.00
0.00 0.00 0.00 0.00 0.00 0.00 0.00 0.00 0.00 0.00 0.00 0.00 0.00 0.00 0.00 0.00 0.00 0.00 0.00 0.00 0.00 0.00 0.00 0.00 0.00 0.00 0.00 0.00 0.00 0.00 0.00 0.00 0.00 0.00 0.00 0.00 0.00 0.00 0.00 0.00 0.00 0.00 0.00 0.00 0.00
0.00 0.00 0.00 0.00 0.00 0.00 0.00 0.00 0.00 0.00 0.00 0.00 0.00 0.00 0.00 0.00 0.00 0.00 0.00 0.00 0.00 0.00 0.00 0.00 0.00 0.00 0.00 0.00 0.00 0.00 0.00 0.00 0.00 0.00 0.00 0.00 0.00 0.00 0.00 0.00 0.00 0.00 0.00 0.00 0.00
0.00 0.00 0.00 0.00 0.00 0.00 0.00 0.00 0.00 0.00 0.00 0.00 0.00 0.00 0.00 0.00 0.00 0.00 0.00 0.00 0.00 0.00 0.00 0.00 0.00 0.00 0.00 0.00 0.00 0.00 0.00 0.00 0.00 0.00 0.00 0.00 0.00 0.00 0.00 0.00 0.00 0.00 0.00 0.00 0.00
0.00 0.00 0.00 0.00 0.00 0.00 0.00 0.00 0.00 0.00 0.00 0.00 0.00 0.00 0.00 0.00 0.00 0.00 0.00 0.00 0.00 0.00 0.00 0.00 0.00 0.00 0.00 0.00 0.00 0.00 0.00 0.00 0.00 0.00 0.00 0.00 0.00 0.00 0.00 0.00 0.00 0.00 0.00 0.00 0.00
0.00 0.00 0.00 0.00 0.00 0.00 0.00 0.00 0.00 0.00 0.00 0.00 0.00 0.00 0.00 0.00 0.00 0.00 0.00 0.00 0.00 0.00 0.00 0.00 0.00 0.00 0.00 0.00 0.00 0.00 0.00 0.00 0.00 0.00 0.00 0.00 0.00 0.00 0.00 0.00 0.00 0.00 0.00 0.00 0.00
0.00 0.00 0.00 0.00 0.00 0.00 0.00 0.00 0.00 0.00 0.00 0.00 0.00 0.00 0.00 0.00 0.00 0.00 0.00 0.00 0.00 0.00 0.00 0.00 0.00 0.00 0.00 0.00 0.00 0.00 0.00 0.00 0.00 0.00 0.00 0.00 0.00 0.00 0.00 0.00 0.00 0.00 0.00 0.00 0.00
0.00 0.00 0.00 0.00 0.00 0.00 0.00 0.00 0.00 0.00 0.00 0.00 0.00 0.00 0.00 0.00 0.00 0.00 0.00 0.00 0.00 0.00 0.00 0.00 0.00 0.00 0.00 0.00 0.00 0.00 0.00 0.00 0.00 0.00 0.00 0.00 0.00 0.00 0.00 0.00 0.00 0.00 0.00 0.00 0.00
0.00 0.00 0.00 0.00 0.00 0.00 0.00 0.00 0.00 0.00 0.00 0.00 0.00 0.00 0.00 0.00 0.00 0.00 0.00 0.00 0.00 0.00 0.00 0.00 0.00 0.00 0.00 0.00 0.00 0.00 0.00 0.00 0.00 0.00 0.00 0.00 0.00 0.00 0.00 0.00 0.00 0.00 0.00 0.00 0.00
0.00 0.00 0.00 0.00 0.00 0.00 0.00 0.00 0.00 0.00 0.00 0.00 0.00 0.00 0.00 0.00 0.00 0.00 0.00 0.00 0.00 0.00 0.00 0.00 0.00 0.00 0.00 0.00 0.00 0.00 0.00 0.00 0.00 0.00 0.00 0.00 0.00 0.00 0.00 0.00 0.00 0.00 0.00 0.00 0.00
0.00 0.00 0.00 0.00 0.00 0.00 0.00 0.00 0.00 0.00 0.00 0.00 0.00 0.00 0.00 0.00 0.00 0.00 0.00 0.00 0.00 0.00 0.00 0.00 0.00 0.00 0.00 0.00 0.00 0.00 0.00 0.00 0.00 0.00 0.00 0.00 0.00 0.00 0.00 0.00 0.00 0.00 0.00 0.00 0.00
0.00 0.00 0.00 0.00 0.00 0.00 0.00 0.00 0.00 0.00 0.00 0.00 0.00 0.00 0.00 0.00 0.00 0.00 0.00 0.00 0.00 0.00 0.00 0.00 0.00 0.00 0.00 0.00 0.00 0.00 0.00 0.00 0.00 0.00 0.00 0.00 0.00 0.00 0.00 0.00 0.00 0.00 0.00 0.00 0.00
0.00 0.00 0.00 0.00 0.00 0.00 0.00 0.00 0.00 0.00 0.00 0.00 0.00 0.00 0.00 0.00 0.00 0.00 0.00 0.00 0.00 0.00 0.00 0.00 0.00 0.00 0.00 0.00 0.00 0.00 0.00 0.00 0.00 0.00 0.00 0.00 0.00 0.00 0.00 0.00 0.00 0.00 0.00 0.00 0.00
0.00 0.00 0.00 0.00 0.00 0.00 0.00 0.00 0.00 0.00 0.00 0.00 0.00 0.00 0.00 0.00 0.00 0.00 0.00 0.00 0.00 0.00 0.00 0.00 0.00 0.00 0.00 0.00 0.00 0.00 0.00 0.00 0.00 0.00 0.00 0.00 0.00 0.00 0.00 0.00 0.00 0.00 0.00 0.00 0.00
0.00 0.00 0.00 0.00 0.00 0.00 0.00 0.00 0.00 0.00 0.00 0.00 0.00 0.00 0.00 0.00 0.00 0.00 0.00 0.00 0.00 0.00 0.00 0.00 0.00 0.00 0.00 0.00 0.00 0.00 0.00 0.00 0.00 0.00 0.00 0.00 0.00 0.00 0.00 0.00 0.00 0.00 0.00 0.00 0.00
0.00 0.00 0.00 0.00 0.00 0.00 0.00 0.00 0.00 0.00 0.00 0.00 0.00 0.00 0.00 0.00 0.00 0.00 0.00 0.00 0.00 0.00 0.00 0.00 0.00 0.00 0.00 0.00 0.00 0.00 0.00 0.00 0.00 0.00 0.00 0.00 0.00 0.00 0.00 0.00 0.00 0.00 0.00 0.00 0.00
0.00 0.00 0.00 0.00 0.00 0.00 0.00 0.00 0.00 0.00 0.00 0.00 0.00 0.00 0.00 0.00 0.00 0.00 0.00 0.00 0.00 0.00 0.00 0.00 0.00 0.00 0.00 0.00 0.00 0.00 0.00 0.00 0.00 0.00 0.00 0.00 0.00 0.00 0.00 0.00 0.00 0.00 0.00 0.00 0.00
0.00 0.00 0.00 0.00 0.00 0.00 0.00 0.00 0.00 0.00 0.00 0.00 0.00 0.00 0.00 0.00 0.00 0.00 0.00 0.00 0.00 0.00 0.00 0.00 0.00 0.00 0.00 0.00 0.00 0.00 0.00 0.00 0.00 0.00 0.00 0.00 0.00 0.00 0.00 0.00 0.00 0.00 0.00 0.00 0.00
0.00 0.00 0.00 0.00 0.00 0.00 0.00 0.00 0.00 0.00 0.00 0.00 0.00 0.00 0.00 0.00 0.00 0.00 0.00 0.00 0.00 0.00 0.00 0.00 0.00 0.00 0.00 0.00 0.00 0.00 0.00 0.00 0.00 0.00 0.00 0.00 0.00 0.00 0.00 0.00 0.00 0.00 0.00 0.00 0.00
0.00 0.00 0.00 0.00 0.00 0.00 0.00 0.00 0.00 0.00 0.00 0.00 0.00 0.00 0.00 0.00 0.00 0.00 0.00 0.00 0.00 0.00 0.00 0.00 0.00 0.00 0.00 0.00 0.00 0.00 0.00 0.00 0.00 0.00 0.00 0.00 0.00 0.00 0.00 0.00 0.00 0.00 0.00 0.00 0.00
0.00 0.00 0.00 0.00 0.00 0.00 0.00 0.00 0.00 0.00 0.00 0.00 0.00 0.00 0.00 0.00 0.00 0.00 0.00 0.00 0.00 0.00 0.00 0.00 0.00 0.00 0.00 0.00 0.00 0.00 0.00 0.00 0.00 0.00 0.00 0.00 0.00 0.00 0.00 0.00 0.00 0.00 0.00 0.00 0.00
0.00 0.00 0.00 0.00 0.00 0.00 0.00 0.00 0.00 0.00 0.00 0.00 0.00 0.00 0.00 0.00 0.00 0.00 0.00 0.00 0.00 0.00 0.00 0.00 0.00 0.00 0.00 0.00 0.00 0.00 0.00 0.00 0.00 0.00 0.00 0.00 0.00 0.00 0.00 0.00 0.00 0.00 0.00 0.00 0.00
0.00 0.00 0.00 0.00 0.00 0.00 0.00 0.00 0.00 0.00 0.00 0.00 0.00 0.00 0.00 0.00 0.00 0.00 0.00 0.00 0.00 0.00 0.00 0.00 0.00 0.00 0.00 0.00 0.00 0.00 0.00 0.00 0.00 0.00 0.00 0.00 0.00 0.00 0.00 0.00 0.00 0.00 0.00 0.00 0.00
MSLP
1020.45 1020.60 1020.72 1020.62 1020.49 1020.31 1020.07 1020.13 1019.89 1019.36 1018.90 1018.65 1018.43 1018.04 1017.65 1017.16 1016.26 1016.45 1016.98 1017.08 1016.79 1016.22 1016.27 1015.82 1015.31 1015.37 1015.76 1016.39 1016.75 1017.13 1018.88 1020.24 1020.67 1021.28 1021.64 1021.86 1022.36 1022.89 1023.48 1024.02 1024.56 1025.32 1025.90 1026.18 1027.71
1020.53 1020.75 1020.38 1020.63 1020.37 1020.20 1020.13 1020.14 1019.63 1019.28 1018.65 1018.63 1018.21 1017.82 1017.53 1017.34 1016.75 1016.77 1016.84 1016.51 1016.32 1016.06 1016.05 1015.64 1015.50 1015.59 1016.43 1017.04 1017.51 1018.28 1019.72 1020.31 1020.51 1020.57 1021.25 1021.77 1022.33 1023.01 1023.74 1024.41 1025.13 1026.08 1026.51 1026.84 1027.78
1020.68 1020.54 1020.45 1020.35 1020.22 1020.06 1020.14 1019.81 1019.43 1019.01 1018.55 1018.50 1018.06 1017.57 1017.33 1016.99 1017.06 1017.10 1016.39 1015.98 1015.91 1015.77 1015.74 1015.39 1015.33 1015.79 1016.78 1017.65 1018.41 1019.03 1020.07 1020.46 1020.77 1020.65 1020.89 1021.79 1022.61 1022.96 1023.65 1024.40 1024.37 1025.38 1026.69 1027.28 1027.89
1020.59 1020.46 1020.29 1020.29 1019.88 1020.08 1020.05 1019.50 1019.20 1018.85 1018.46 1018.35 1018.00 1017.54 1016.99 1016.82 1017.53 1017.05 1016.28 1015.77 1015.36 1015.38 1015.51 1015.31 1015.47 1016.18 1017.45 1018.34 1018.75 1019.81 1020.49 1020.61 1020.90 1020.97 1021.26 1021.91 1022.38 1022.94 1023.21 1023.13 1023.31 1024.27 1025.35 1026.64 1027.45
1020.52 1020.46 1020.18 1020.08 1020.06 1019.99 1019.78 1019.17 1019.08 1018.65 1018.45 1018.18 1017.83 1017.60 1016.95 1017.32 1017.36 1016.72 1016.30 1015.93 1015.34 1015.34 1015.67 1015.59 1015.84 1016.54 1017.90 1018.81 1019.36 1020.25 1020.92 1021.15 1021.26 1021.21 1021.53 1021.81 1022.33 1022.68 1022.83 1023.03 1023.33 1024.29 1025.50 1026.14 1026.79
1020.50 1020.25 1020.31 1020.24 1020.05 1019.77 1019.46 1018.97 1018.94 1018.68 1018.27 1018.01 1018.01 1017.81 1017.46 1017.37 1016.95 1016.58 1016.46 1016.24 1015.99 1015.84 1016.14 1015.98 1016.60 1016.75 1018.21 1019.20 1019.79 1020.44 1021.02 1021.56 1021.61 1021.61 1021.74 1022.12 1022.42 1022.70 1022.11 1022.87 1023.79 1024.41 1025.27 1025.79 1026.10
1020.51 1020.31 1020.34 1020.15 1019.98 1019.59 1019.31 1019.14 1018.82 1018.41 1017.95 1017.85 1018.19 1017.84 1017.50 1017.29 1016.74 1016.43 1016.47 1016.47 1016.27 1016.36 1016.49 1016.47 1016.37 1016.96 1018.38 1019.57 1020.03 1020.74 1021.51 1021.75 1021.84 1021.88 1022.02 1022.22 1022.58 1022.13 1022.27 1022.76 1023.87 1024.47 1024.90 1025.42 1025.70
1020.54 1020.22 1020.17 1019.98 1019.89 1019.45 1019.09 1019.18 1018.77 1018.03 1017.49 1017.60 1017.79 1017.84 1017.54 1016.81 1016.68 1016.57 1016.42 1016.58 1016.42 1016.54 1016.61 1016.57 1016.60 1017.46 1018.54 1019.57 1020.27 1020.84 1021.33 1021.71 1021.36 1021.76 1022.13 1022.40 1021.88 1021.40 1022.04 1022.77 1023.69 1024.21 1024.50 1024.85 1025.05
1020.31 1020.21 1020.04 1019.96 1019.65 1019.14 1018.92 1018.86 1018.41 1017.83 1017.41 1017.36 1017.30 1017.67 1017.67 1016.99 1016.73 1016.67 1016.54 1016.82 1016.65 1016.76 1016.69 1016.64 1016.93 1018.12 1019.17 1019.92 1020.50 1020.64 1021.09 1021.21 1021.44 1021.45 1021.96 1022.44 1021.75 1021.39 1021.91 1022.39 1023.12 1023.58 1024.03 1024.12 1024.37
1020.37 1020.16 1019.94 1019.59 1019.33 1019.17 1018.64 1018.18 1017.80 1017.69 1016.78 1016.95 1017.03 1018.05 1017.67 1017.28 1016.85 1016.82 1016.74 1016.78 1016.96 1016.97 1017.10 1017.22 1017.65 1018.56 1019.46 1020.13 1020.35 1020.20 1020.45 1020.37 1020.72 1021.04 1021.62 1022.07 1021.45 1021.47 1021.72 1022.16 1022.39 1022.86 1023.31 1023.44 1023.44
1020.17 1020.11 1019.73 1019.61 1019.25 1019.10 1018.44 1017.71 1018.36 1018.30 1017.62 1017.46 1017.56 1017.85 1017.45 1017.20 1016.94 1017.04 1016.92 1016.89 1017.02 1017.34 1017.60 1017.53 1018.26 1018.94 1019.10 1019.29 1019.27 1019.43 1019.75 1020.01 1020.19 1020.33 1021.10 1021.12 1020.88 1020.52 1020.61 1021.43 1021.97 1022.22 1022.42 1022.46 1022.35
1020.29 1019.96 1019.60 1019.55 1019.00 1018.70 1018.65 1018.73 1019.09 1019.29 1018.44 1017.61 1017.63 1017.74 1017.47 1017.30 1017.28 1017.24 1017.03 1017.33 1017.41 1017.73 1017.54 1018.00 1018.51 1018.59 1018.73 1018.92 1019.04 1019.19 1019.51 1019.75 1019.98 1020.31 1020.88 1020.50 1020.11 1019.42 1019.65 1019.81 1020.23 1020.81 1021.31 1021.44 1021.69
1020.23 1019.76 1019.46 1019.30 1018.69 1018.22 1018.58 1019.09 1019.01 1018.91 1018.78 1018.02 1017.67 1017.52 1017.45 1017.43 1017.32 1017.39 1017.42 1017.54 1017.53 1017.65 1017.84 1018.28 1018.53 1018.53 1018.70 1018.82 1019.05 1019.15 1019.52 1019.74 1020.15 1020.32 1020.28 1020.49 1019.86 1018.96 1018.78 1019.13 1019.52 1019.83 1019.99 1020.25 1020.48
1020.12 1019.67 1019.31 1018.80 1018.80 1018.53 1018.89 1019.05 1018.90 1018.83 1019.02 1018.34 1017.75 1017.39 1017.32 1017.30 1017.52 1017.35 1017.50 1017.82 1017.64 1017.77 1017.96 1018.31 1018.50 1018.70 1018.90 1019.01 1019.10 1019.53 1019.69 1020.00 1020.38 1020.84 1020.58 1020.23 1020.30 1018.79 1018.40 1018.59 1018.74 1018.87 1019.22 1019.33 1019.53
1020.20 1019.80 1019.29 1018.97 1019.21 1018.97 1019.26 1019.03 1018.83 1019.20 1019.26 1018.29 1017.68 1017.31 1017.27 1017.64 1017.64 1017.52 1017.67 1017.86 1017.88 1017.96 1018.44 1018.41 1018.53 1018.80 1019.09 1018.95 1019.16 1019.69 1020.01 1020.43 1020.68 1021.05 1021.09 1020.33 1020.59 1017.99 1017.84 1018.06 1017.73 1017.78 1018.22 1018.43 1018.61
1020.25 1019.67 1019.25 1019.19 1019.15 1019.25 1019.07 1018.98 1019.26 1019.64 1018.57 1017.86 1017.51 1017.39 1017.61 1017.56 1017.59 1017.63 1017.96 1018.09 1018.03 1018.10 1018.29 1018.55 1018.60 1018.77 1018.92 1019.10 1019.42 1019.92 1020.41 1020.84 1021.03 1021.40 1021.53 1019.71 1019.86 1017.93 1017.23 1016.17 1016.33 1016.54 1017.07 1017.40 1017.91
1020.13 1019.76 1019.50 1019.20 1019.42 1019.13 1019.04 1019.40 1020.00 1019.53 1018.26 1018.07 1017.61 1017.46 1017.56 1017.64 1017.65 1017.80 1018.11 1018.36 1018.50 1018.71 1018.98 1019.01 1018.91 1019.03 1019.13 1019.47 1019.80 1020.24 1020.96 1021.43 1021.84 1021.92 1020.82 1019.57 1019.46 1016.76 1015.04 1014.61 1014.63 1015.37 1016.02 1016.47 1017.16
1019.84 1019.66 1019.22 1019.08 1019.12 1019.08 1019.36 1020.25 1019.93 1018.45 1018.14 1017.74 1017.58 1017.55 1017.77 1017.47 1017.69 1017.98 1018.20 1018.44 1018.30 1018.67 1019.24 1019.37 1019.35 1019.39 1019.24 1019.46 1019.81 1020.41 1020.91 1021.47 1021.43 1021.70 1020.69 1019.76 1018.16 1014.89 1013.65 1013.50 1013.89 1014.32 1015.06 1016.20 1016.95
1019.72 1019.54 1019.48 1019.26 1019.08 1019.31 1019.84 1020.58 1019.38 1018.52 1018.09 1017.89 1017.82 1017.90 1017.84 1017.71 1017.97 1017.98 1018.08 1018.27 1018.35 1018.58 1019.25 1019.42 1019.34 1019.55 1019.65 1019.77 1020.13 1020.41 1020.74 1020.93 1021.31 1021.22 1021.17 1018.96 1016.73 1014.32 1013.62 1013.68 1014.00 1014.50 1015.26 1015.89 1016.63
1020.28 1020.05 1019.69 1019.22 1019.17 1019.68 1020.62 1020.22 1019.05 1018.39 1018.09 1018.05 1018.22 1018.07 1018.02 1018.04 1018.21 1018.30 1017.97 1018.08 1018.56 1018.76 1018.91 1019.44 1019.77 1019.66 1019.98 1020.11 1020.23 1020.40 1020.82 1021.10 1021.55 1021.84 1021.44 1018.88 1016.96 1014.68 1013.78 1013.53 1013.80 1014.44 1014.82 1015.28 1016.07
1020.48 1020.58 1019.61 1019.13 1019.31 1020.24 1020.87 1020.09 1019.07 1018.63 1018.45 1018.55 1018.48 1018.37 1018.23 1018.22 1018.14 1018.37 1018.12 1018.28 1018.45 1019.19 1019.42 1019.63 1019.98 1020.35 1020.31 1020.07 1019.80 1020.65 1020.69 1021.01 1021.45 1021.42 1021.09 1019.60 1016.60 1013.04 1012.53 1012.30 1012.84 1013.25 1013.79 1014.19 1014.97
1021.06 1020.97 1019.69 1019.43 1020.38 1020.43 1020.47 1019.45 1019.11 1018.85 1018.81 1018.82 1018.88 1018.84 1018.60 1018.38 1018.41 1018.53 1018.46 1018.58 1018.81 1019.25 1019.89 1019.94 1020.32 1020.41 1019.78 1019.29 1019.32 1019.49 1019.77 1020.18 1021.01 1020.77 1020.41 1019.41 1015.31 1012.37 1011.99 1011.63 1011.99 1012.44 1012.82 1013.34 1013.90
1022.13 1021.20 1020.01 1019.91 1020.79 1020.89 1020.07 1019.31 1018.79 1018.86 1018.87 1019.04 1019.05 1019.00 1018.75 1018.77 1018.95 1018.59 1018.70 1019.21 1019.45 1019.89 1020.34 1020.60 1020.84 1020.67 1019.73 1019.82 1019.56 1019.51 1019.45 1019.49 1019.89 1020.03 1019.54 1019.04 1014.34 1012.10 1011.68 1011.81 1011.87 1012.24 1012.58 1012.99 1013.54
1022.76 1022.02 1021.06 1020.93 1020.87 1020.61 1020.29 1019.61 1019.12 1018.85 1018.77 1018.77 1018.91 1018.96 1019.18 1019.10 1019.03 1018.97 1019.14 1019.72 1020.11 1020.51 1020.80 1020.96 1021.00 1020.51 1019.78 1018.97 1018.76 1019.23 1018.84 1018.82 1019.26 1019.52 1018.35 1016.38 1013.33 1011.82 1011.73 1011.72 1011.71 1011.95 1011.96 1012.25 1012.91
1023.02 1022.35 1021.47 1021.74 1021.17 1020.77 1020.44 1019.78 1019.34 1019.29 1019.10 1018.96 1019.09 1019.17 1019.42 1019.53 1019.12 1019.23 1019.36 1020.17 1020.68 1021.01 1021.23 1021.50 1021.35 1020.49 1019.28 1018.69 1018.51 1018.16 1017.96 1017.85 1018.07 1016.97 1016.90 1013.56 1013.54 1010.77 1010.73 1011.13 1011.18 1011.26 1011.27 1011.68 1012.20
1023.24 1022.98 1022.35 1022.00 1021.16 1020.72 1020.23 1019.73 1019.28 1018.96 1019.07 1019.15 1019.36 1019.08 1019.38 1019.63 1019.19 1019.32 1019.43 1020.23 1020.41 1021.44 1021.60 1021.67 1021.19 1020.52 1019.47 1018.30 1017.92 1017.53 1016.40 1016.22 1015.86 1015.39 1014.63 1013.31 1012.42 1009.10 1010.12 1010.55 1010.59 1010.70 1010.98 1011.33 1011.49
1023.16 1022.88 1022.94 1022.35 1021.61 1021.14 1020.52 1019.69 1019.15 1019.02 1018.59 1018.63 1018.93 1019.43 1019.53 1019.28 1019.29 1019.10 1018.88 1019.17 1019.59 1020.42 1021.51 1021.87 1021.83 1021.31 1019.83 1018.66 1017.83 1016.69 1014.48 1013.88 1013.32 1013.24 1013.04 1012.95 1009.81 1009.32 1010.01 1010.31 1010.01 1009.92 1010.18 1010.27 1010.25
Thickness
5707 5708 5708 5710 5713 5716 5719 5719 5722 5729 5735 5736 5739 5743 5748 5754 5763 5761 5746 5753 5756 5763 5761 5763 5765 5762 5758 5745 5745 5742 5701 5688 5697 5687 5690 5693 5687 5688 5684 5676 5677 5672 5667 5665 5650
5705 5704 5712 5709 5715 5716 5718 5718 5724 5729 5738 5736 5741 5746 5750 5753 5758 5750 5758 5760 5762 5764 5762 5759 5754 5756 5738 5736 5730 5716 5692 5699 5703 5703 5691 5691 5686 5681 5676 5669 5667 5658 5656 5654 5645
5702 5706 5710 5713 5715 5718 5717 5720 5726 5731 5738 5736 5742 5749 5751 5758 5747 5745 5763 5765 5765 5767 5766 5766 5763 5753 5734 5728 5721 5713 5693 5701 5697 5702 5697 5688 5680 5681 5672 5662 5669 5662 5649 5646 5640
5703 5707 5711 5713 5720 5716 5716 5724 5728 5732 5737 5738 5742 5749 5756 5757 5722 5751 5763 5767 5769 5769 5764 5761 5755 5738 5718 5713 5720 5698 5698 5699 5698 5698 5694 5684 5682 5677 5675 5680 5682 5669 5659 5648 5640
5704 5707 5712 5715 5716 5717 5719 5728 5728 5733 5736 5739 5744 5748 5754 5738 5735 5758 5762 5764 5768 5766 5755 5754 5745 5734 5713 5709 5710 5695 5694 5693 5693 5694 5689 5689 5682 5678 5677 5680 5676 5669 5657 5649 5642
5704 5710 5711 5712 5715 5719 5723 5729 5729 5732 5737 5740 5742 5745 5745 5727 5753 5758 5759 5761 5760 5757 5747 5748 5737 5735 5715 5706 5702 5698 5691 5685 5688 5688 5687 5680 5679 5680 5685 5676 5667 5665 5655 5648 5644
5705 5710 5710 5713 5716 5722 5724 5725 5729 5735 5741 5742 5739 5743 5737 5732 5755 5758 5758 5755 5757 5751 5743 5746 5746 5734 5716 5700 5702 5692 5681 5684 5680 5682 5681 5681 5670 5674 5680 5675 5665 5659 5653 5648 5644
5705 5710 5712 5715 5716 5722 5726 5723 5727 5737 5746 5743 5744 5741 5725 5752 5755 5755 5757 5751 5755 5750 5747 5746 5744 5729 5714 5707 5698 5688 5682 5671 5684 5680 5678 5677 5670 5686 5678 5673 5664 5659 5651 5650 5646
5707 5710 5714 5715 5717 5724 5727 5725 5729 5738 5744 5745 5746 5737 5721 5749 5747 5752 5754 5742 5745 5744 5745 5745 5738 5716 5708 5689 5679 5684 5669 5675 5676 5680 5674 5670 5674 5686 5676 5674 5668 5661 5654 5654 5648
5705 5711 5714 5717 5721 5721 5727 5732 5733 5737 5745 5745 5746 5720 5731 5729 5744 5746 5749 5746 5736 5734 5730 5727 5716 5699 5690 5677 5666 5678 5677 5686 5677 5679 5674 5667 5667 5678 5676 5672 5672 5664 5657 5656 5655
5708 5710 5715 5716 5719 5721 5726 5731 5718 5716 5728 5721 5723 5718 5728 5738 5745 5738 5743 5738 5734 5725 5707 5718 5695 5685 5691 5695 5696 5692 5687 5683 5680 5687 5678 5672 5674 5683 5684 5674 5668 5664 5661 5663 5662
5704 5709 5715 5715 5720 5723 5724 5714 5710 5711 5706 5727 5726 5723 5731 5734 5722 5729 5738 5722 5719 5704 5716 5700 5690 5701 5703 5699 5693 5689 5683 5679 5684 5682 5676 5676 5678 5688 5686 5684 5682 5677 5668 5667 5664
5703 5709 5713 5715 5722 5724 5718 5711 5715 5716 5698 5712 5720 5720 5722 5727 5719 5720 5727 5719 5713 5707 5708 5691 5697 5704 5698 5693 5687 5686 5678 5680 5678 5680 5678 5677 5674 5692 5693 5690 5682 5678 5676 5672 5669
5703 5708 5713 5719 5716 5719 5710 5713 5714 5716 5676 5695 5705 5714 5721 5723 5710 5726 5725 5716 5711 5704 5706 5698 5701 5695 5691 5686 5686 5673 5683 5681 5676 5665 5657 5678 5653 5681 5688 5685 5685 5679 5674 5673 5669
5702 5705 5711 5714 5710 5707 5710 5712 5714 5706 5653 5699 5704 5723 5719 5708 5711 5713 5722 5712 5702 5702 5698 5690 5690 5687 5682 5687 5689 5677 5680 5674 5673 5662 5661 5671 5650 5676 5686 5682 5683 5682 5678 5674 5669
5700 5705 5710 5710 5709 5708 5709 5711 5706 5672 5660 5692 5704 5702 5699 5704 5706 5710 5707 5710 5709 5701 5699 5693 5697 5692 5688 5688 5685 5680 5673 5668 5665 5651 5642 5664 5658 5672 5679 5693 5695 5690 5683 5680 5672
5698 5702 5704 5706 5699 5706 5708 5698 5667 5654 5699 5689 5694 5700 5697 5695 5698 5698 5694 5688 5681 5680 5674 5683 5683 5686 5687 5678 5678 5671 5654 5640 5649 5638 5645 5671 5658 5680 5701 5703 5704 5696 5689 5682 5674
5695 5699 5701 5702 5702 5704 5699 5677 5660 5690 5686 5698 5697 5697 5686 5698 5695 5690 5687 5677 5690 5685 5667 5664 5665 5673 5681 5677 5670 5660 5653 5636 5649 5637 5648 5664 5648 5689 5707 5709 5708 5699 5691 5678 5670
5692 5693 5693 5697 5698 5698 5680 5653 5663 5684 5691 5688 5689 5680 5683 5690 5688 5688 5680 5679 5686 5684 5665 5664 5673 5673 5673 5673 5669 5663 5651 5659 5646 5644 5632 5649 5672 5700 5707 5703 5696 5689 5682 5673 5665
5681 5683 5685 5692 5693 5686 5663 5657 5679 5689 5689 5687 5673 5679 5676 5677 5676 5673 5683 5689 5679 5680 5678 5671 5655 5668 5663 5666 5664 5659 5656 5643 5630 5631 5627 5641 5659 5678 5689 5691 5689 5682 5677 5672 5662
5675 5668 5682 5688 5687 5667 5650 5655 5678 5682 5683 5676 5673 5673 5675 5674 5674 5673 5680 5683 5680 5669 5670 5665 5656 5656 5656 5648 5651 5641 5642 5641 5631 5623 5617 5616 5653 5691 5696 5697 5691 5686 5682 5676 5665
5664 5653 5678 5680 5656 5652 5652 5669 5672 5673 5673 5671 5669 5666 5667 5670 5669 5666 5670 5671 5674 5666 5657 5659 5643 5640 5651 5659 5659 5654 5647 5640 5623 5635 5618 5606 5647 5699 5698 5697 5691 5688 5684 5677 5669
5650 5652 5670 5669 5642 5642 5657 5669 5671 5667 5664 5660 5660 5661 5666 5662 5653 5660 5670 5661 5662 5659 5651 5649 5634 5630 5646 5647 5647 5643 5644 5644 5634 5623 5619 5608 5656 5696 5691 5687 5684 5682 5676 5670 5666
5638 5638 5649 5650 5648 5652 5651 5653 5656 5664 5663 5662 5659 5661 5655 5649 5652 5653 5659 5650 5649 5646 5641 5639 5630 5635 5636 5650 5645 5637 5640 5638 5630 5610 5619 5635 5672 5694 5684 5675 5675 5674 5671 5667 5658
5625 5629 5641 5631 5637 5641 5645 5649 5647 5648 5651 5655 5650 5647 5641 5637 5646 5640 5647 5637 5637 5634 5633 5626 5621 5627 5639 5642 5639 5640 5642 5638 5625 5646 5626 5671 5646 5690 5684 5673 5674 5671 5669 5666 5655
5610 5614 5621 5624 5633 5637 5633 5639 5641 5643 5642 5641 5637 5646 5636 5633 5641 5639 5643 5631 5634 5621 5618 5617 5619 5628 5630 5640 5631 5624 5642 5644 5645 5648 5646 5654 5651 5700 5683 5678 5666 5665 5661 5658 5653
5600 5606 5605 5608 5617 5620 5623 5630 5637 5640 5646 5643 5638 5634 5630 5631 5633 5633 5638 5637 5635 5622 5612 5606 5604 5607 5608 5637 5629 5614 5655 5657 5655 5648 5651 5634 5676 5684 5668 5663 5664 5666 5659 5658 5656